Hourly Weather Kanggye

Today, 4 July, Saturday

Time Temperature Precipitation Wind Pressure Humidity
00:00 +19°C° 0 mm 1 mps 726 mmHg 94%
01:00 +19°C° 0 mm 1 mps 725 mmHg 94%
02:00 +18°C° 0 mm 1 mps 725 mmHg 94%
03:00 +18°C° 0 mm 1 mps 725 mmHg 94%
04:00 +18°C° 0 mm 1 mps 725 mmHg 94%
05:00 +18°C° 0 mm 1 mps 725 mmHg 94%
06:00 +19°C° 0 mm 0 mps 725 mmHg 86%
07:00 +21°C° 0 mm 0 mps 725 mmHg 78%
08:00 +23°C° 0 mm 0 mps 725 mmHg 70%
09:00 +27°C° 0 mm 1 mps 724 mmHg 63%
10:00 +28°C° 0 mm 1 mps 724 mmHg 56%
11:00 +29°C° 0 mm 2 mps 724 mmHg 49%
12:00 +29°C° 0.1 mm 2 mps 723 mmHg 49%
13:00 +29°C° 0.1 mm 2 mps 723 mmHg 49%
14:00 +29°C° 0.1 mm 2 mps 722 mmHg 49%
15:00 +28°C° 0.2 mm 2 mps 722 mmHg 56%
16:00 +28°C° 0.2 mm 2 mps 722 mmHg 63%
17:00 +27°C° 0.2 mm 2 mps 722 mmHg 70%
18:00 +25°C° 0.2 mm 1 mps 722 mmHg 78%
19:00 +23°C° 0.2 mm 1 mps 722 mmHg 85%
20:00 +19°C° 0.2 mm 0 mps 722 mmHg 92%
21:00 +21°C° 0.2 mm 1 mps 722 mmHg 93%
22:00 +20°C° 0.2 mm 1 mps 722 mmHg 94%
23:00 +20°C° 0.2 mm 1 mps 722 mmHg 95%

Tomorrow, 5 July, Sunday

Time Temperature Precipitation Wind Pressure Humidity
00:00 +20°C° 0 mm 1 mps 722 mmHg 96%
01:00 +19°C° 0 mm 1 mps 722 mmHg 96%
02:00 +18°C° 0 mm 1 mps 721 mmHg 97%
03:00 +18°C° 0 mm 1 mps 721 mmHg 97%
04:00 +18°C° 0 mm 1 mps 722 mmHg 97%
05:00 +18°C° 0 mm 1 mps 722 mmHg 96%
06:00 +21°C° 0 mm 1 mps 722 mmHg 86%
07:00 +23°C° 0 mm 1 mps 722 mmHg 76%
08:00 +26°C° 0 mm 1 mps 722 mmHg 66%
09:00 +27°C° 0 mm 1 mps 722 mmHg 61%
10:00 +28°C° 0 mm 2 mps 721 mmHg 56%
11:00 +30°C° 0 mm 2 mps 721 mmHg 51%
12:00 +29°C° 0.7 mm 2 mps 721 mmHg 61%
13:00 +28°C° 0.7 mm 2 mps 720 mmHg 70%
14:00 +27°C° 0.7 mm 2 mps 719 mmHg 80%
15:00 +26°C° 0.9 mm 2 mps 719 mmHg 83%
16:00 +26°C° 0.9 mm 1 mps 719 mmHg 87%
17:00 +25°C° 0.9 mm 1 mps 719 mmHg 90%
18:00 +24°C° 0.3 mm 1 mps 720 mmHg 92%
19:00 +22°C° 0.3 mm 1 mps 720 mmHg 93%
20:00 +18°C° 0.3 mm 0 mps 720 mmHg 95%
21:00 +20°C° 0 mm 1 mps 720 mmHg 95%
22:00 +20°C° 0 mm 1 mps 720 mmHg 96%
23:00 +19°C° 0 mm 1 mps 720 mmHg 96%

Day after tomorrow, 6 July, Monday

Time Temperature Precipitation Wind Pressure Humidity
00:00 +19°C° 0 mm 1 mps 720 mmHg 96%
01:00 +18°C° 0 mm 1 mps 720 mmHg 96%
02:00 +18°C° 0 mm 1 mps 720 mmHg 96%
03:00 +18°C° 0 mm 1 mps 720 mmHg 96%
04:00 +18°C° 0 mm 1 mps 720 mmHg 96%
05:00 +18°C° 0 mm 1 mps 720 mmHg 96%
06:00 +21°C° 0 mm 1 mps 720 mmHg 89%
07:00 +21°C° 0 mm 0 mps 720 mmHg 82%
08:00 +23°C° 0 mm 0 mps 720 mmHg 75%
09:00 +23°C° 0.1 mm 0 mps 720 mmHg 76%
10:00 +24°C° 0.1 mm 1 mps 720 mmHg 77%
11:00 +24°C° 0.1 mm 1 mps 720 mmHg 78%
12:00 +24°C° 0.2 mm 1 mps 720 mmHg 77%
13:00 +25°C° 0.2 mm 1 mps 720 mmHg 76%
14:00 +25°C° 0.2 mm 1 mps 719 mmHg 75%
15:00 +24°C° 0.6 mm 1 mps 720 mmHg 81%
16:00 +23°C° 0.6 mm 1 mps 720 mmHg 87%
17:00 +23°C° 0.6 mm 1 mps 720 mmHg 94%
18:00 +20°C° 0.7 mm 0 mps 720 mmHg 95%
19:00 +19°C° 0.7 mm 0 mps 720 mmHg 96%
20:00 +18°C° 0.7 mm 0 mps 720 mmHg 98%
21:00 +18°C° 0.7 mm 0 mps 720 mmHg 98%
22:00 +18°C° 0.7 mm 0 mps 720 mmHg 98%
23:00 +18°C° 0.7 mm 0 mps 720 mmHg 98%

7 July, Tuesday

Time Temperature Precipitation Wind Pressure Humidity
00:00 +18°C° 0.7 mm 0 mps 720 mmHg 98%
01:00 +18°C° 0.7 mm 0 mps 720 mmHg 98%
02:00 +18°C° 0.7 mm 0 mps 720 mmHg 98%
03:00 +18°C° 0.2 mm 0 mps 720 mmHg 98%
04:00 +18°C° 0.2 mm 0 mps 720 mmHg 98%
05:00 +18°C° 0.2 mm 0 mps 720 mmHg 98%
06:00 +19°C° 0 mm 0 mps 721 mmHg 94%
07:00 +21°C° 0 mm 0 mps 721 mmHg 90%
08:00 +24°C° 0 mm 1 mps 721 mmHg 86%
09:00 +26°C° 0.1 mm 1 mps 721 mmHg 76%
10:00 +28°C° 0.1 mm 1 mps 721 mmHg 65%
11:00 +30°C° 0.1 mm 2 mps 722 mmHg 55%
12:00 +30°C° 0 mm 2 mps 721 mmHg 54%
13:00 +30°C° 0 mm 2 mps 721 mmHg 53%
14:00 +30°C° 0 mm 2 mps 721 mmHg 52%
15:00 +30°C° 0 mm 2 mps 721 mmHg 54%
16:00 +30°C° 0 mm 2 mps 721 mmHg 57%
17:00 +29°C° 0 mm 2 mps 721 mmHg 59%
18:00 +27°C° 0 mm 2 mps 721 mmHg 69%
19:00 +24°C° 0 mm 1 mps 722 mmHg 78%
20:00 +22°C° 0 mm 1 mps 722 mmHg 88%
21:00 +21°C° 0 mm 1 mps 722 mmHg 90%
22:00 +21°C° 0 mm 1 mps 722 mmHg 92%
23:00 +20°C° 0 mm 1 mps 723 mmHg 94%

8 July, Wednesday

Time Temperature Precipitation Wind Pressure Humidity
00:00 +19°C° 0 mm 1 mps 723 mmHg 94%
01:00 +19°C° 0 mm 1 mps 722 mmHg 94%
02:00 +19°C° 0 mm 1 mps 722 mmHg 95%
03:00 +19°C° 0 mm 1 mps 723 mmHg 94%
04:00 +19°C° 0 mm 1 mps 723 mmHg 94%
05:00 +18°C° 0 mm 1 mps 723 mmHg 93%
06:00 +22°C° 0 mm 1 mps 723 mmHg 81%
07:00 +25°C° 0 mm 1 mps 724 mmHg 69%
08:00 +28°C° 0 mm 1 mps 724 mmHg 58%
09:00 +29°C° 0 mm 1 mps 724 mmHg 51%
10:00 +30°C° 0 mm 1 mps 724 mmHg 44%
11:00 +32°C° 0 mm 1 mps 724 mmHg 37%
12:00 +32°C° 0 mm 1 mps 723 mmHg 35%
13:00 +34°C° 0 mm 2 mps 723 mmHg 33%
14:00 +34°C° 0 mm 2 mps 723 mmHg 32%
15:00 +32°C° 0 mm 1 mps 723 mmHg 37%
16:00 +31°C° 0 mm 1 mps 723 mmHg 43%
17:00 +31°C° 0 mm 1 mps 722 mmHg 48%
18:00 +28°C° 0 mm 1 mps 723 mmHg 55%
19:00 +25°C° 0 mm 1 mps 723 mmHg 62%
20:00 +22°C° 0 mm 1 mps 723 mmHg 68%
21:00 +22°C° 0 mm 1 mps 723 mmHg 72%
22:00 +21°C° 0 mm 1 mps 724 mmHg 75%
23:00 +20°C° 0 mm 1 mps 724 mmHg 79%

9 July, Thursday

Time Temperature Precipitation Wind Pressure Humidity
00:00 +20°C° 0 mm 1 mps 724 mmHg 82%
01:00 +20°C° 0 mm 1 mps 724 mmHg 85%
02:00 +20°C° 0 mm 1 mps 724 mmHg 88%
03:00 +20°C° 0 mm 1 mps 724 mmHg 87%
04:00 +20°C° 0 mm 1 mps 724 mmHg 87%
05:00 +21°C° 0 mm 1 mps 724 mmHg 87%
06:00 +22°C° 0 mm 0 mps 724 mmHg 79%
07:00 +24°C° 0 mm 0 mps 724 mmHg 71%
08:00 +27°C° 0 mm 0 mps 724 mmHg 63%
09:00 +29°C° 0 mm 0 mps 724 mmHg 57%
10:00 +32°C° 0 mm 1 mps 724 mmHg 51%
11:00 +34°C° 0 mm 1 mps 724 mmHg 45%
12:00 +33°C° 0.3 mm 1 mps 724 mmHg 49%
13:00 +32°C° 0.3 mm 1 mps 724 mmHg 54%
14:00 +32°C° 0.3 mm 1 mps 723 mmHg 58%
15:00 +31°C° 0.1 mm 1 mps 723 mmHg 61%
16:00 +30°C° 0.1 mm 1 mps 723 mmHg 64%
17:00 +30°C° 0.1 mm 1 mps 723 mmHg 67%
18:00 +28°C° 0.2 mm 1 mps 723 mmHg 75%
19:00 +25°C° 0.2 mm 1 mps 724 mmHg 84%
20:00 +23°C° 0.2 mm 1 mps 724 mmHg 92%
21:00 +22°C° 0.3 mm 1 mps 724 mmHg 93%
22:00 +22°C° 0.3 mm 1 mps 725 mmHg 93%
23:00 +21°C° 0.3 mm 1 mps 725 mmHg 94%
Show more